Location: Amos
(48.5670°N, 78.1170°W)
Time: 15:47:32
(UTC-04:00)

ISS - Visible Passes

Search period start: 23 September 2020 00:00
Search period end: 03 October 2020 00:00
Orbit: 419 x 420 km, 51.6° (Epoch: 24 September)

Date Brightness Start Highest point End Pass type
(mag) Time Alt. Az. Time Alt. Az. Time Alt. Az.
23 Sep -3.7 19:31:44 10° WSW 19:35:06 75° SSE 19:38:29 10° ENE visible
23 Sep -3.1 21:08:46 10° W 21:12:04 49° N 21:12:15 48° N visible
24 Sep -3.2 20:21:18 10° W 20:24:36 54° N 20:26:40 21° ENE visible
24 Sep -1.1 21:58:24 10° WNW 21:59:38 20° WNW 21:59:38 20° WNW visible
25 Sep -3.4 19:33:48 10° W 19:37:09 64° NNW 19:40:31 10° ENE visible
25 Sep -3.0 21:10:58 10° WNW 21:14:00 48° NNW 21:14:00 48° NNW visible
26 Sep -3.1 20:23:29 10° WNW 20:26:47 47° N 20:28:22 26° ENE visible
26 Sep -0.8 22:00:26 10° WNW 22:01:19 17° WNW 22:01:19 17° WNW visible
27 Sep -3.1 19:35:59 10° W 19:39:17 49° N 19:42:34 10° ENE visible
27 Sep -2.9 21:13:00 10° WNW 21:15:39 48° NW 21:15:39 48° NW visible
28 Sep -3.4 20:25:34 10° WNW 20:28:54 55° N 20:30:00 35° ENE visible
28 Sep -0.5 22:02:27 10° WNW 22:02:57 14° WNW 22:02:57 14° WNW visible
29 Sep -3.2 19:38:05 10° WNW 19:41:23 49° N 19:44:21 12° E visible
29 Sep -2.5 21:14:58 10° WNW 21:17:18 41° W 21:17:18 41° W visible
30 Sep -3.8 20:27:31 10° WNW 20:30:55 83° NNE 20:31:40 50° ESE visible
01 Oct -3.6 19:40:03 10° WNW 19:43:25 66° NNE 19:46:04 15° E visible
01 Oct -1.8 21:17:00 10° W 21:19:02 27° WSW 21:19:02 27° WSW visible
02 Oct -3.2 20:29:26 10° WNW 20:32:44 50° SSW 20:33:29 40° SSE visible
